Location: Sternwarte Stuttgart
(48.7670°N, 9.1830°E)
Time: 20:34:11
(UTC+02:00)

Cosmos 1300 - Pass Details

Date: 24 January 2019
Orbit: 512 x 515 km, 82.5° (Epoch: 22 April)

Event Time Altitude Azimuth Distance (km) Brightness Sun altitude
Rises 06:55:33 0° 189° (S) 2,612 6.4 -11.1°
Reaches altitude 10° 06:57:40 10° 190° (S) 1,731 5.4 -10.8°
Maximum altitude 07:01:28 85° 279° (W) 521 2.6 -10.2°
Drops below altitude 10° 07:05:18 10° 9° (N) 1,747 5.3 -9.6°
Sets 07:07:27 0° 10° (N) 2,640 6.2 -9.3°
